RH
14 14 14 14 14 14 14 13 13 12 10 8 7 7 9 11 12 12 11 9 8 8 7 7 7 7 7 7 7 7 6 6 6 6 6 6 6 6 6 6 6 6 6 6 7 7 7 8 8 8 8 8 7 8 11 15 19 20 20 19 19 18 16 13 13 13 12 10 11 12 13 13 13 13 12 15 15 16 18 15 22 36 38 38 42 40 38 43
11 11 11 11 11 10 10 10 9 8 7 6 5 6 8 11 12 12 11 9 8 8 7 7 7 7 7 7 7 7 6 6 6 5 6 6 6 6 6 6 6 6 6 6 7 7 7 8 8 8 8 9 8 10 13 14 18 19 18 19 18 16 12 10 12 13 12 11 11 11 12 14 13 13 12 13 15 17 24 24 21 33 37 36 38 37 37 39
8 7 7 7 7 7 7 6 6 5 5 4 5 6 9 12 13 12 11 9 8 8 8 7 8 7 7 7 6 6 7 6 5 5 6 6 6 6 6 6 6 6 6 7 6 7 8 8 10 10 9 12 12 13 14 14 16 17 17 19 18 16 13 12 13 12 11 11 12 12 12 15 13 13 12 12 15 17 23 26 23 31 34 30 30 31 33 38
5 5 5 5 5 4 4 4 4 4 4 6 6 8 11 14 14 12 11 10 9 8 8 8 8 7 7 6 6 7 6 6 10 11 8 6 6 6 7 6 6 6 6 7 6 7 8 8 17 21 16 17 17 16 17 15 15 16 17 18 17 17 16 15 13 12 11 11 12 13 12 14 14 12 13 13 16 18 21 28 28 29 31 28 27 27 30 35
4 4 4 4 4 4 4 4 4 5 6 7 8 11 14 15 14 12 11 10 9 9 8 8 8 7 7 6 7 6 7 16 25 24 17 12 8 5 6 7 6 6 6 7 6 7 7 10 23 28 24 21 19 18 17 16 15 15 17 18 17 16 15 14 13 12 11 12 12 13 13 13 13 12 13 13 14 16 18 27 30 32 40 38 31 27 28 33
4 4 5 5 5 6 6 6 7 8 9 10 12 15 16 16 15 13 11 10 9 9 8 8 7 7 7 6 7 5 9 23 30 28 26 21 14 9 6 7 7 6 6 6 6 8 7 14 26 28 26 23 20 18 16 15 15 14 16 17 17 16 15 13 12 12 12 13 12 12 12 12 13 12 13 12 13 15 16 22 27 40 57 50 37 32 33 38
4 4 5 6 7 8 8 9 10 11 12 15 18 18 18 17 15 13 11 10 10 9 9 8 7 7 7 6 7 7 9 19 23 23 21 17 16 14 8 7 7 6 6 6 7 9 10 19 28 27 25 22 18 17 15 15 14 14 15 15 15 14 14 13 12 12 12 12 12 13 12 11 12 12 12 11 14 15 17 22 25 41 58 52 43 41 41 42
4 4 5 6 7 9 11 13 15 17 19 20 21 20 20 18 15 13 11 11 10 9 9 8 8 7 6 6 6 8 7 10 16 17 13 10 12 14 11 8 6 7 7 6 8 10 14 24 28 23 21 19 15 14 14 14 13 14 14 13 14 13 13 13 12 11 11 12 13 13 12 11 10 12 12 11 17 16 18 24 24 36 50 50 50 50 47 45
5 4 4 5 8 12 15 18 21 23 23 23 23 21 21 19 15 14 11 11 10 9 9 8 9 7 7 7 7 15 17 14 20 18 10 9 9 11 12 8 7 8 6 7 12 11 12 20 21 17 16 15 14 13 12 12 12 13 13 13 13 12 12 12 12 11 12 12 12 12 12 12 10 14 11 14 30 28 23 27 28 41 53 52 52 54 52 49
5 5 5 4 5 10 16 21 24 25 25 24 23 22 21 19 16 14 12 11 10 10 10 9 9 7 9 9 9 24 29 21 24 18 8 7 7 9 10 8 8 7 6 11 17 13 13 18 17 16 15 14 14 14 13 12 13 12 12 13 12 12 13 12 12 11 12 12 12 12 12 13 12 15 12 14 34 35 29 35 36 44 53 52 54 56 54 52
5 5 5 4 4 6 11 19 24 25 25 24 24 22 21 20 17 15 13 12 11 10 10 9 9 8 11 11 17 37 35 17 14 11 6 7 6 8 9 8 8 7 10 16 18 18 20 21 18 18 17 15 14 14 13 13 14 13 11 13 12 13 12 12 12 10 12 12 12 12 11 14 13 14 14 13 25 32 34 41 40 40 43 46 50 52 50 50
5 5 5 5 4 4 6 11 19 24 26 26 25 23 22 21 18 16 14 12 11 10 10 10 9 9 11 13 21 37 32 14 8 7 6 7 5 7 9 7 8 11 14 17 19 22 24 22 19 19 19 18 16 15 16 14 13 13 12 12 12 13 13 12 12 10 12 12 11 13 13 14 13 13 14 14 24 34 39 41 39 39 38 38 42 43 44 46
5 5 5 5 5 5 4 5 10 16 22 25 26 24 23 22 20 17 15 13 12 12 10 9 9 10 12 16 19 23 21 12 7 7 7 7 6 7 8 8 12 16 18 21 24 24 22 22 21 20 21 21 18 18 19 16 13 13 12 12 13 15 14 13 14 12 11 12 12 13 14 13 14 14 13 19 31 37 39 39 39 42 40 39 42 43 44 45
5 5 5 6 5 5 5 5 5 6 11 16 21 24 24 23 21 19 16 14 13 12 11 10 10 11 12 18 20 15 13 10 8 8 7 6 6 7 7 9 15 19 21 27 29 26 22 22 22 22 23 21 20 21 21 19 17 14 13 13 14 14 13 12 14 14 12 12 13 13 14 14 13 13 14 22 32 33 34 39 40 42 43 42 44 45 42 42
5 6 6 6 6 5 5 5 5 5 5 7 10 16 22 24 23 20 18 16 14 12 11 10 12 12 14 24 27 16 11 10 8 8 8 7 6 7 7 7 13 17 23 29 29 27 25 22 21 22 23 21 21 22 20 19 19 17 15 13 14 14 12 11 12 13 13 12 13 13 14 14 13 16 20 22 28 29 32 41 42 39 42 42 41 42 42 45
6 6 5 5 5 5 5 5 5 5 5 5 6 9 16 22 25 23 20 16 14 13 11 10 13 14 17 29 33 21 12 11 10 8 8 9 7 9 10 8 11 16 23 30 28 26 26 23 20 19 20 21 22 22 19 18 18 17 17 15 14 14 12 12 11 12 13 11 12 13 14 12 12 20 26 25 28 28 28 37 39 35 37 37 36 41 46 49
8 7 6 6 5 5 6 6 6 5 5 6 6 7 10 15 20 23 23 20 16 13 12 12 14 17 22 29 32 24 14 11 11 9 11 13 12 18 18 12 14 18 22 26 24 24 24 21 20 18 19 21 21 22 21 19 17 16 17 15 14 13 12 13 12 12 12 12 13 14 13 12 13 21 24 23 24 23 22 28 31 34 37 33 34 41 45 44
9 9 8 8 6 7 6 6 6 5 7 7 8 14 18 21 25 25 22 19 18 15 12 12 14 24 34 36 35 31 23 18 13 11 14 16 17 24 24 19 22 24 23 25 25 24 23 21 22 20 21 22 22 25 25 20 19 22 22 19 17 15 13 12 11 12 12 12 14 15 14 13 15 20 20 18 19 18 20 22 26 35 38 34 36 39 38 39
9 9 9 9 8 8 6 7 7 6 9 8 14 34 44 47 53 54 43 26 19 15 14 17 20 32 41 39 37 35 31 28 20 15 18 21 22 26 27 25 26 27 26 27 26 25 24 23 24 24 23 23 22 23 22 21 23 26 25 23 22 19 14 12 12 12 12 13 14 14 14 14 15 17 16 16 17 17 18 19 26 35 38 37 36 34 31 36
9 9 9 9 9 9 7 8 8 8 11 9 25 56 64 57 64 74 67 48 28 14 23 34 29 32 40 38 39 37 34 32 25 21 22 24 27 27 26 27 27 27 27 27 27 25 24 24 25 25 24 24 23 22 22 24 28 27 24 23 21 19 15 13 12 12 14 13 13 14 14 14 14 14 14 15 17 17 15 18 25 34 37 36 32 30 29 33
8 8 9 9 9 10 8 8 10 12 12 9 27 55 56 47 58 68 60 53 38 16 26 43 32 31 39 38 40 39 36 32 29 29 26 25 27 25 25 27 28 28 26 26 27 26 26 25 23 23 25 26 27 29 28 27 27 25 23 22 19 18 17 15 14 14 15 14 14 15 15 15 14 14 15 15 17 16 15 18 21 26 32 35 32 32 31 34
9 8 9 10 9 10 9 9 10 15 18 17 27 42 43 40 50 57 44 37 32 17 24 39 34 34 37 35 38 40 38 35 31 29 27 25 24 23 24 26 26 28 27 26 26 26 28 26 22 22 24 27 30 30 28 25 24 22 21 21 20 18 17 16 15 15 16 15 16 17 17 16 15 16 16 16 16 17 16 18 18 20 28 34 35 33 33 38
9 8 9 9 9 10 10 10 9 16 24 30 39 43 43 41 42 47 42 32 25 18 19 27 29 33 36 35 36 39 38 35 31 27 26 24 20 22 27 25 23 25 26 26 24 26 28 26 23 22 22 27 29 26 25 24 22 23 21 19 19 18 17 18 17 18 19 18 17 17 17 16 15 16 16 16 17 17 17 18 17 19 21 26 33 35 37 42
9 9 9 8 10 9 10 11 9 13 20 31 44 45 43 44 41 44 47 39 24 16 17 22 28 29 32 37 36 38 37 32 31 30 28 24 18 22 28 25 23 23 24 24 23 24 24 22 23 25 25 28 28 25 23 22 21 21 19 18 18 17 17 19 20 21 20 20 20 17 17 15 15 16 16 17 18 17 18 19 18 19 19 22 33 39 41 44
9 9 9 8 10 9 10 11 10 13 24 37 45 49 50 44 42 46 48 42 23 16 26 35 38 32 28 35 35 36 36 31 31 31 30 27 23 23 25 25 24 22 22 21 21 23 22 20 22 24 26 26 25 23 21 21 21 20 18 19 18 14 16 18 21 24 21 22 22 19 24 23 16 15 16 17 16 16 19 20 18 20 21 23 28 33 36 40
10 9 9 9 9 9 9 11 14 16 23 36 45 62 66 44 42 51 49 51 38 25 36 44 42 35 27 30 33 33 33 28 29 30 30 30 28 25 23 23 23 21 22 20 19 20 21 21 20 22 25 24 24 24 22 23 23 23 21 22 21 17 17 18 20 24 22 23 24 23 30 30 21 17 17 18 16 16 19 19 18 20 23 23 24 27 29 34
10 10 9 9 9 9 9 10 16 17 21 37 51 67 65 41 43 51 51 72 64 36 40 43 36 31 24 26 30 31 30 26 27 29 29 30 29 27 24 24 23 20 19 19 18 19 20 21 20 22 23 22 23 23 23 22 21 24 24 23 24 21 20 21 21 23 22 22 25 26 27 28 26 22 20 20 19 18 19 18 19 20 23 23 24 28 30 33
11 11 9 9 9 8 10 9 11 14 20 36 46 45 38 33 43 49 61 86 68 36 39 39 31 28 24 26 29 29 30 27 28 28 27 29 28 27 25 23 24 24 22 20 20 19 19 20 19 20 20 21 23 23 23 23 20 21 22 23 24 23 23 23 22 23 20 21 25 25 25 28 28 22 20 21 19 19 20 19 20 20 24 25 24 26 28 32
10 11 10 10 10 8 10 10 10 13 15 22 28 21 17 26 38 52 77 85 52 30 35 32 28 28 26 31 33 30 29 27 28 27 26 28 27 26 25 24 25 25 24 22 20 19 19 19 20 20 22 24 25 25 23 22 21 20 22 24 24 24 24 23 26 25 21 25 28 25 24 29 30 23 20 22 20 21 22 21 22 23 25 25 25 27 29 34
9 10 10 10 10 10 10 9 9 12 12 12 14 11 11 19 33 63 85 69 38 31 32 29 29 26 25 33 35 32 29 27 27 26 26 28 28 27 25 24 26 24 23 23 21 19 18 19 21 21 23 23 22 24 23 20 21 21 21 23 23 25 25 25 27 22 25 36 33 25 24 28 34 29 22 23 23 22 22 22 25 26 26 25 26 32 36 40
7 7 9 9 10 10 9 10 10 10 12 10 10 12 11 14 39 77 82 53 37 36 31 29 31 27 28 31 31 30 28 28 27 25 27 28 28 29 26 25 26 25 24 24 22 21 19 19 20 21 21 20 19 20 21 20 19 20 22 23 23 26 26 27 27 23 35 48 36 25 25 28 34 31 23 23 23 22 23 22 25 27 26 26 27 31 36 39
6 7 7 8 10 10 10 10 10 11 11 10 11 10 11 28 58 74 61 43 41 38 30 29 29 29 30 30 30 30 27 29 30 26 26 27 26 26 26 25 25 25 24 22 22 22 21 19 20 21 20 20 19 18 19 20 18 19 22 22 23 25 29 36 38 36 43 44 32 27 31 33 33 27 23 24 22 22 23 22 25 27 26 27 27 28 32 35
5 6 6 7 8 8 11 10 9 11 10 11 13 8 25 63 77 60 43 40 41 35 31 31 28 28 30 29 30 29 26 27 29 28 26 26 26 24 24 23 22 24 23 21 23 23 24 22 19 21 21 21 20 17 17 18 17 18 18 19 23 26 37 47 45 42 43 37 29 29 34 36 32 26 25 25 24 24 23 23 25 26 27 28 28 28 30 31
5 5 5 6 7 7 10 10 10 11 9 12 10 8 43 80 68 43 39 42 41 37 34 34 29 26 26 26 27 26 25 25 25 27 25 24 24 22 24 24 21 22 21 21 24 24 27 29 23 22 22 21 20 18 17 16 16 17 16 18 20 21 36 47 43 42 44 36 28 29 34 35 32 30 29 25 26 27 25 27 27 27 28 29 30 31 31 32
5 5 5 5 6 7 9 10 11 11 10 14 8 13 55 74 45 25 26 28 34 34 30 32 32 29 26 24 25 24 23 24 23 24 23 23 23 22 23 24 21 22 22 22 25 24 26 26 23 22 22 20 20 18 17 16 15 17 17 19 20 20 27 33 33 33 32 32 33 31 30 29 31 34 30 26 28 28 28 30 29 30 32 32 34 34 35 36
5 5 5 5 5 6 8 9 11 12 11 12 10 16 39 44 28 27 30 27 29 28 24 28 30 32 31 25 25 25 23 22 24 25 24 22 22 21 21 23 22 23 22 21 22 22 23 21 20 22 21 19 20 19 17 17 16 17 17 18 20 23 23 26 31 30 27 37 41 30 24 25 28 32 28 26 29 28 29 31 30 33 36 36 37 35 37 41
5 5 5 5 5 5 8 9 11 14 13 13 14 15 18 19 21 31 37 33 29 24 23 27 29 33 33 29 28 26 22 21 22 24 24 23 23 22 20 21 21 22 22 20 20 22 23 21 21 22 21 18 18 19 18 17 17 18 17 18 18 21 23 26 33 34 33 42 39 25 23 25 26 28 28 28 31 29 28 30 30 32 35 35 36 36 37 39
5 4 5 5 5 5 8 13 15 13 14 15 16 15 16 20 26 34 38 38 34 28 23 25 30 32 31 33 33 27 22 22 22 22 23 22 25 23 19 18 20 20 22 21 21 24 24 22 22 22 22 20 18 19 18 16 18 18 17 17 16 19 23 24 28 35 39 43 39 28 24 23 24 28 29 28 31 29 27 28 28 29 30 31 34 36 35 35
10 5 5 7 9 7 9 26 33 24 24 25 19 19 19 15 18 28 34 33 32 28 23 24 26 26 27 32 34 30 25 24 23 24 23 21 25 27 21 20 22 23 24 23 24 25 24 24 25 23 23 22 19 18 17 17 18 18 17 17 14 17 22 21 22 28 35 42 43 36 32 30 29 29 27 27 29 29 28 27 27 28 30 32 34 35 34 35
19 9 9 20 28 21 22 49 57 39 36 36 27 27 29 23 20 25 29 28 26 23 23 24 23 21 24 27 31 32 30 28 27 28 27 23 26 32 28 24 26 27 27 27 26 26 24 26 27 26 27 25 21 19 18 19 19 18 20 18 17 20 22 24 24 22 29 41 44 45 48 41 32 30 29 27 28 30 29 29 30 32 33 34 36 36 37 38
20 12 19 38 52 44 43 63 62 38 34 38 33 32 34 34 33 32 32 29 26 25 25 25 23 21 22 24 28 30 28 30 30 33 37 33 30 32 29 25 27 29 30 29 29 28 28 29 28 27 27 25 21 19 19 20 20 18 19 18 21 24 22 32 42 32 28 36 39 48 57 42 28 31 31 28 29 30 32 34 35 38 37 36 39 40 41 40
21 26 40 55 66 62 57 62 55 40 37 34 32 37 38 38 36 33 32 29 28 30 28 26 23 21 21 23 27 29 28 29 29 33 40 40 37 36 31 27 26 28 31 29 29 30 30 30 29 28 28 26 24 23 21 22 21 18 17 18 22 23 19 33 50 40 29 31 32 42 50 37 29 34 33 31 32 32 34 36 37 41 42 41 44 45 44 41
20 34 55 61 64 64 61 58 53 52 53 44 40 46 47 43 38 32 30 28 30 31 28 26 23 20 20 22 25 28 29 29 29 30 32 35 40 42 38 32 27 29 31 27 27 31 28 25 25 24 25 25 23 21 18 18 19 17 18 18 19 21 19 26 35 32 27 27 27 36 44 38 36 37 35 36 35 31 34 37 35 39 42 44 49 48 43 42
18 33 60 66 64 66 66 65 60 56 57 53 49 48 44 40 36 32 29 29 32 32 29 28 25 22 23 24 25 28 29 29 29 29 29 32 38 42 41 36 29 28 31 28 29 32 29 25 26 27 31 32 29 24 20 19 21 22 23 23 21 22 24 26 28 28 29 27 24 33 43 43 40 39 38 37 35 35 40 44 41 43 48 54 56 50 44 44
21 40 64 68 66 66 61 59 60 59 54 50 47 45 42 40 35 31 30 31 34 35 33 31 29 29 29 29 30 31 31 31 31 31 30 31 35 39 39 37 32 28 28 28 29 29 28 30 34 38 44 48 46 39 30 26 27 26 25 25 25 24 26 27 28 30 33 32 29 32 40 43 41 41 41 38 37 39 45 49 51 55 61 62 59 54 49 49
42 60 67 68 69 64 56 55 55 55 53 48 43 40 40 40 38 35 33 32 34 36 36 35 35 35 35 35 37 36 33 31 31 30 29 28 31 35 36 35 33 30 28 28 28 26 25 28 33 38 43 46 46 40 34 31 29 27 27 27 26 26 26 26 28 29 31 34 33 32 37 40 39 41 43 41 40 42 45 47 48 53 58 61 64 65 61 56
71 82 70 69 73 65 63 66 60 53 52 48 42 40 39 39 41 41 40 38 38 39 38 35 34 35 36 35 36 38 38 36 35 33 31 30 30 31 33 32 31 32 32 30 30 28 26 27 28 32 34 36 35 33 30 27 24 24 26 26 25 26 26 26 26 26 27 31 34 33 32 33 34 39 42 42 40 41 44 46 47 49 51 54 64 72 73 68
75 88 78 73 75 72 68 68 63 59 58 54 49 48 46 44 44 47 46 44 44 44 41 37 35 35 35 35 35 37 35 33 35 36 33 35 37 33 32 34 33 35 35 33 33 31 28 27 27 27 29 30 31 31 30 27 25 25 26 27 28 27 26 25 25 26 28 28 30 30 30 32 37 39 39 39 40 39 40 43 46 49 50 53 57 61 66 70
45 71 84 75 71 77 74 64 62 62 59 56 54 50 49 50 52 54 54 53 53 51 48 49 49 43 42 42 39 41 45 43 43 42 36 37 42 39 37 40 40 39 38 36 35 34 32 32 33 34 36 38 38 39 38 35 32 31 30 30 30 29 27 26 25 29 30 28 29 30 31 40 48 43 37 38 40 40 38 40 43 46 52 62 66 62 61 64
20 40 59 55 54 67 69 59 60 63 58 56 55 52 52 53 52 54 56 57 58 56 54 57 57 53 54 52 44 51 68 67 55 48 42 40 46 47 45 46 46 44 41 40 40 40 39 40 44 45 45 47 47 45 41 38 36 34 32 32 31 28 28 28 29 33 33 32 36 35 35 47 54 45 40 41 40 40 40 39 44 47 50 60 66 65 66 65
20 23 36 46 51 60 65 61 59 59 59 61 60 57 58 58 55 53 55 58 57 56 58 58 55 56 61 60 54 62 75 71 57 50 47 44 48 51 50 48 48 47 44 42 44 45 45 45 46 47 49 51 50 47 44 41 38 36 35 35 34 31 32 33 37 41 40 39 42 40 42 54 57 49 47 46 42 43 44 43 47 50 51 55 59 60 67 72
21 29 47 61 62 63 67 68 61 57 62 68 66 62 62 67 64 54 53 58 54 55 62 61 53 54 59 60 62 67 67 61 57 53 50 48 49 51 51 50 49 47 43 43 45 47 49 48 46 47 50 51 49 49 47 44 45 46 42 40 40 39 38 39 43 47 46 44 44 46 55 61 59 55 54 51 48 50 50 50 52 53 53 55 57 57 61 66
Wind_Speed
15 15 15 15 15 15 15 15 15 15 15 14 14 13 12 12 12 12 12 12 12 12 11 11 12 12 12 12 12 13 14 14 14 13 13 15 14 13 13 14 14 13 15 15 15 15 14 13 13 13 13 14 13 11 12 15 17 14 15 17 18 20 17 13 12 13 15 12 4 4 1 5 5 4 4 2 5 9 9 15 14 14 16 14 12 10 10 12
15 15 15 15 15 15 15 15 15 15 15 14 13 13 12 11 11 11 11 11 11 11 11 11 11 11 12 12 12 13 13 13 13 12 13 14 12 12 13 14 14 13 14 14 14 14 13 13 13 13 14 14 12 11 10 12 16 17 17 19 21 21 17 12 11 13 17 13 6 7 5 4 4 4 7 6 4 7 8 11 15 17 17 14 11 11 13 14
14 14 14 14 14 14 14 14 15 14 14 14 13 12 11 11 10 11 11 10 11 11 11 11 11 11 11 12 12 12 13 12 11 11 12 12 10 11 12 12 12 12 12 13 14 14 14 15 12 10 11 12 11 10 8 8 11 14 16 21 24 21 17 14 12 15 18 15 10 8 4 3 7 8 8 7 4 7 10 13 18 20 19 18 16 14 15 15
13 13 13 14 14 13 13 13 13 13 13 13 12 11 10 9 10 10 10 10 10 10 10 10 10 11 11 11 11 11 11 10 8 9 9 9 10 11 11 11 11 11 12 14 16 16 18 18 13 6 6 8 9 8 10 10 10 13 16 20 20 17 20 19 16 20 18 14 12 11 9 3 6 7 6 8 8 7 11 14 16 20 21 21 19 17 16 15
12 13 13 13 13 12 12 12 12 12 12 11 11 10 9 9 9 9 9 9 9 10 9 10 10 10 10 11 10 10 10 7 5 6 6 6 8 9 10 10 10 11 13 15 17 18 19 19 16 9 8 9 9 8 11 13 12 14 17 18 16 14 18 19 18 21 18 12 13 15 14 11 11 9 7 9 9 11 14 13 14 16 17 18 19 17 16 14
11 11 12 12 11 11 11 11 11 11 10 10 10 9 8 8 8 9 9 9 9 9 9 9 10 9 10 9 9 10 8 6 5 5 5 5 6 7 9 9 10 11 13 15 16 18 19 18 17 14 13 13 13 13 11 11 13 18 18 17 17 16 18 17 17 21 21 17 18 19 19 19 16 11 12 12 11 15 17 16 17 12 7 10 14 16 13 11
10 10 10 10 10 10 10 10 10 10 9 9 9 8 8 8 8 8 8 9 8 8 8 8 8 8 8 8 8 8 8 9 8 7 5 5 5 6 7 8 10 11 12 14 15 17 18 15 13 14 13 13 14 15 14 13 15 19 20 18 18 19 18 16 16 17 19 20 22 23 24 23 17 14 18 16 14 19 18 18 20 13 10 12 12 13 12 11
10 9 9 9 8 9 9 8 8 8 8 8 8 8 8 7 7 8 8 8 8 7 7 7 7 7 7 7 7 7 9 9 8 7 6 5 5 5 7 8 11 11 11 13 15 18 16 12 11 11 12 12 10 9 9 10 14 19 21 20 18 18 20 21 18 13 12 14 19 22 22 20 18 17 17 13 17 23 18 18 20 14 9 12 12 12 12 12
10 9 9 8 8 8 8 8 7 8 8 7 7 7 7 7 7 7 7 7 7 7 7 7 6 6 6 6 6 7 9 7 6 7 6 5 5 5 7 8 10 11 12 13 14 18 14 11 10 8 7 8 7 8 9 11 15 18 20 21 20 19 21 22 17 16 17 17 19 20 18 16 14 15 14 11 16 19 14 15 18 11 6 11 14 13 13 13
9 9 9 8 7 7 7 7 7 7 7 7 7 7 7 7 7 7 7 7 6 6 7 6 6 6 6 6 6 6 8 6 4 5 4 3 5 5 6 8 10 12 13 15 14 15 14 11 8 4 5 9 11 14 17 19 17 16 16 17 19 19 20 19 17 20 22 20 18 15 15 15 11 13 13 10 15 15 13 15 16 13 8 11 14 14 13 13
9 9 8 8 8 7 7 7 8 8 7 7 7 7 7 7 7 7 7 7 6 6 6 6 5 6 6 6 6 4 6 7 2 1 3 2 3 5 6 8 11 12 13 16 16 13 13 10 5 4 10 13 15 14 15 17 15 14 14 14 16 18 19 19 20 19 16 16 16 13 14 16 15 17 16 12 16 17 14 14 14 15 14 13 14 13 14 15
9 9 8 8 8 7 6 7 8 9 8 8 8 7 7 7 7 7 6 6 6 6 6 5 5 5 6 6 5 4 7 9 3 1 2 1 3 5 6 8 11 14 15 15 12 8 9 10 6 12 13 10 12 11 10 12 13 14 15 16 15 18 21 21 21 20 17 16 15 12 14 20 20 20 17 14 18 19 14 13 16 18 17 17 18 16 17 16
8 8 8 7 7 7 7 6 7 9 10 10 9 8 8 8 7 7 6 6 6 6 6 5 5 6 6 6 4 4 7 8 5 2 1 2 4 6 9 11 13 17 17 14 8 3 7 11 13 18 17 11 10 11 11 9 10 12 15 18 17 18 24 24 20 18 19 19 15 13 16 20 17 15 17 18 22 21 14 14 17 18 17 16 18 18 18 16
7 7 7 7 7 7 7 7 7 7 9 10 11 10 10 9 8 7 6 6 6 6 6 6 6 6 6 5 3 1 3 5 4 2 0 3 5 7 10 15 18 19 16 15 11 6 9 13 16 18 19 17 14 13 12 9 9 11 12 16 19 23 25 22 19 17 17 16 14 15 18 19 15 13 18 22 24 19 13 15 17 15 13 13 14 15 15 15
6 6 7 7 7 7 7 7 7 7 7 8 10 11 11 9 8 8 7 7 6 6 7 7 7 6 5 5 4 2 2 3 3 2 1 4 7 8 9 14 17 15 15 18 14 7 10 17 20 18 16 15 11 10 10 9 9 12 15 17 19 24 22 15 15 20 17 12 14 15 15 19 15 14 20 25 22 15 12 17 16 13 10 9 10 10 11 12
6 6 6 6 7 7 7 7 6 6 6 6 7 8 9 10 10 8 7 7 6 6 7 8 6 5 4 3 4 3 3 2 2 3 5 6 8 9 5 9 11 9 14 19 13 6 8 14 17 16 14 10 10 11 13 14 13 14 19 20 20 23 24 21 18 22 16 10 18 20 13 15 14 11 21 20 15 11 13 18 16 13 9 7 7 7 9 9
6 6 6 7 7 7 7 6 6 6 5 5 4 3 4 7 9 10 9 7 7 7 8 8 6 4 4 3 6 4 3 3 4 6 7 7 8 8 3 3 9 7 10 12 8 3 4 6 9 13 11 7 11 14 15 18 18 16 19 24 22 21 26 23 18 24 18 12 22 23 13 13 10 11 20 16 13 12 16 17 15 11 8 7 5 4 5 7
7 7 7 7 7 7 7 5 5 4 4 3 1 2 3 2 3 7 9 9 8 7 8 9 6 4 1 6 8 5 2 4 4 6 9 7 8 7 5 4 6 5 4 3 2 3 3 3 5 9 9 9 11 15 18 20 16 10 11 18 20 22 24 18 20 26 22 16 20 21 15 10 4 15 15 10 10 14 16 14 12 9 8 8 6 5 3 4
8 8 7 7 7 7 7 6 4 3 2 0 3 6 7 6 5 4 7 9 10 8 8 8 6 5 3 9 8 1 3 3 4 5 9 8 10 13 8 8 4 3 5 3 2 4 3 3 7 9 10 11 12 15 18 18 14 9 9 10 14 21 19 16 19 23 21 18 17 17 16 12 8 13 9 8 9 15 12 10 10 8 10 10 8 7 4 3
9 9 8 7 7 7 7 6 5 3 1 2 6 6 5 5 7 8 8 9 11 10 8 9 10 7 5 7 7 1 4 4 5 4 8 9 10 14 12 11 8 7 10 9 6 3 2 4 9 13 11 11 12 14 15 14 14 14 12 10 13 18 15 8 17 23 17 16 15 12 14 14 11 13 14 11 15 15 11 10 10 7 9 10 7 5 4 2
10 9 8 7 7 7 6 6 5 3 1 3 6 5 2 2 4 9 11 7 11 15 14 11 10 8 7 8 2 6 5 7 7 8 8 10 11 13 12 11 11 13 13 11 11 8 8 11 12 14 14 13 13 12 11 12 14 15 15 14 12 12 14 5 18 24 15 14 13 10 12 13 12 12 12 13 20 17 14 13 11 7 7 7 6 5 4 5
10 9 8 7 7 7 6 5 4 3 2 2 4 4 4 5 3 8 13 9 9 16 19 13 10 11 12 13 7 12 11 10 10 11 10 11 12 13 12 9 10 14 10 7 10 12 15 16 13 10 11 14 16 14 12 13 14 16 17 15 12 9 11 6 10 13 11 12 10 9 11 12 13 12 8 8 16 16 11 13 12 9 8 8 10 10 7 9
10 9 8 7 6 7 6 5 4 3 1 0 2 5 6 9 7 6 12 14 10 14 21 18 15 15 15 12 9 15 13 11 11 10 11 11 10 12 13 10 8 9 9 9 12 14 17 16 11 6 10 14 16 16 15 14 15 16 16 16 15 11 8 7 1 5 7 6 8 9 12 16 18 15 9 5 9 13 10 11 9 7 10 13 13 11 9 9
10 9 8 7 6 6 6 5 4 3 2 2 3 6 8 9 8 6 10 15 12 11 17 18 17 18 17 14 13 16 14 13 14 12 12 11 8 11 16 15 12 11 13 14 14 16 16 13 10 6 10 13 13 12 12 11 12 12 11 12 15 15 12 11 3 1 4 4 7 9 11 18 23 20 13 9 8 11 11 12 11 9 13 14 11 9 7 6
10 9 8 7 6 6 6 4 4 2 2 2 2 7 9 8 8 9 10 14 13 8 9 12 17 18 16 16 17 17 15 17 18 17 17 14 8 9 14 15 14 16 18 18 17 21 20 14 10 7 9 9 10 11 10 9 9 8 7 7 11 14 15 13 7 5 4 4 6 8 8 13 22 22 17 13 11 11 12 15 18 15 13 12 11 12 10 7
11 10 9 8 7 6 5 4 3 2 2 2 1 6 11 9 8 10 11 12 13 8 7 10 14 15 14 16 16 13 14 16 15 16 20 20 12 9 13 13 12 14 16 14 14 19 20 16 12 10 9 7 6 7 5 5 8 10 8 6 8 11 14 14 12 8 5 5 6 7 7 8 15 18 15 12 13 14 14 17 17 13 16 14 11 14 16 13
12 11 10 9 8 6 5 5 4 4 7 6 2 2 9 7 5 7 8 8 9 5 8 12 12 12 14 18 17 13 13 11 9 13 20 24 17 11 16 19 16 14 14 13 15 13 11 10 13 11 10 11 11 10 8 8 11 12 11 10 10 10 11 13 14 12 7 6 4 6 7 9 14 16 13 12 14 15 18 20 17 13 14 12 11 13 14 14
13 12 12 10 9 8 6 6 6 7 8 8 7 8 7 3 4 5 4 3 2 1 8 13 12 11 11 15 18 18 12 4 6 13 15 18 16 13 18 23 20 17 13 13 18 14 9 8 10 12 14 16 17 15 11 11 14 13 11 10 10 10 11 11 12 13 12 10 8 9 9 7 10 14 13 14 16 16 19 20 20 17 12 8 13 16 15 13
15 14 13 11 10 9 7 7 7 8 9 10 11 10 5 4 5 2 1 1 1 2 7 11 13 12 10 12 16 20 15 6 6 10 12 13 14 14 17 19 19 18 15 15 18 17 15 11 11 13 13 10 12 11 10 13 15 14 11 11 9 10 13 12 12 13 11 8 7 9 10 5 5 12 14 14 15 13 13 17 16 16 13 11 15 16 14 13
15 15 14 13 12 10 9 9 8 9 11 10 8 6 6 6 5 2 1 1 3 5 6 10 12 11 11 15 16 18 19 15 9 11 17 15 13 14 16 17 17 17 16 16 15 15 17 11 9 12 10 6 10 11 11 12 14 13 12 14 11 10 14 14 13 13 10 3 1 4 10 9 5 8 13 13 13 12 12 14 12 15 14 14 17 13 8 9
15 16 15 14 13 11 10 10 10 9 10 8 6 6 8 7 5 2 2 2 6 6 5 8 10 12 12 16 17 15 17 19 15 14 17 13 12 15 16 16 17 16 15 15 12 10 15 15 12 14 13 12 12 14 13 11 10 8 7 10 8 6 10 12 10 8 4 2 5 7 11 12 8 8 12 11 10 11 13 13 13 20 19 19 21 16 12 13
14 15 16 15 15 13 10 11 11 8 7 6 6 8 8 5 6 8 7 4 5 2 7 8 8 13 14 15 18 16 15 18 17 16 16 14 12 14 16 15 15 13 11 12 11 8 12 17 14 11 14 14 10 11 12 9 6 7 6 8 5 4 3 5 3 1 1 4 8 10 10 10 11 14 15 12 7 7 12 13 13 20 22 21 22 18 15 14
15 15 15 16 16 13 11 11 11 9 7 7 7 9 7 3 5 12 13 9 5 2 5 8 7 11 16 17 18 18 17 17 16 16 19 17 13 13 15 14 13 13 10 8 10 9 9 14 14 13 16 14 11 7 9 9 6 8 10 8 5 1 0 2 2 1 3 5 8 12 10 8 10 11 11 12 10 9 11 13 13 19 22 22 24 25 23 22
17 15 15 15 15 14 12 11 11 10 9 9 9 9 9 7 8 12 13 12 11 10 10 10 9 10 16 20 18 16 18 19 17 17 19 16 14 15 17 14 11 15 15 10 9 8 6 8 11 13 14 12 11 6 7 10 8 8 11 12 13 9 5 2 1 2 1 3 7 10 4 3 7 5 4 8 10 9 9 12 14 16 19 19 21 23 25 27
18 16 15 15 14 13 12 12 11 12 12 11 12 12 13 13 13 13 14 12 11 12 13 12 12 13 14 18 18 16 18 18 16 18 19 17 17 16 17 16 13 14 15 11 7 7 9 10 9 8 7 7 8 5 4 7 8 8 8 12 15 9 6 5 5 5 5 4 5 9 6 4 6 3 3 6 12 13 11 11 13 14 16 17 18 20 22 24
19 17 15 15 13 12 13 13 12 13 14 13 14 17 19 18 15 12 10 9 9 11 12 10 10 13 14 13 16 17 19 19 15 15 17 17 19 19 17 18 16 15 15 10 5 4 8 12 9 6 7 9 7 5 5 5 4 3 5 8 8 5 4 7 7 6 6 3 3 9 11 11 8 6 7 9 13 15 15 14 14 15 15 16 17 18 19 19
18 18 15 14 12 12 12 13 13 14 15 16 18 20 21 20 17 14 11 12 13 13 14 12 9 12 13 10 13 15 15 17 14 13 14 14 14 16 19 21 19 15 14 12 7 3 6 13 12 7 4 8 7 6 9 9 5 2 2 4 3 4 6 6 4 1 1 2 3 6 9 11 9 6 8 12 13 13 16 18 18 18 18 18 20 22 21 19
17 18 15 12 11 12 13 14 15 16 16 17 20 21 21 20 17 16 16 17 16 14 14 13 9 9 11 10 14 14 9 12 12 12 14 14 11 12 14 15 18 15 10 11 8 1 5 12 12 7 4 4 5 5 9 10 8 5 6 8 7 3 5 5 5 2 1 2 2 5 7 7 5 4 7 13 15 14 17 20 20 20 22 23 25 26 23 20
15 16 13 9 9 12 13 13 14 16 18 19 21 20 19 20 18 14 13 14 15 16 14 12 8 8 10 12 16 15 8 8 11 11 12 12 11 13 8 6 13 15 10 10 8 3 5 9 9 7 5 5 4 6 9 9 6 6 8 10 9 5 3 3 5 4 3 3 2 3 4 2 5 4 4 10 13 14 15 16 17 20 24 27 27 25 20 16
14 12 9 6 8 10 10 11 11 14 18 21 21 20 18 18 15 11 10 13 15 14 12 11 10 11 10 10 13 15 13 11 11 11 12 10 7 11 11 5 6 8 9 10 10 8 7 7 8 8 8 8 6 5 3 4 4 5 7 10 10 7 5 3 4 5 4 0 2 0 2 3 7 8 5 5 7 13 13 13 17 20 23 24 24 22 18 13
10 6 1 4 9 10 9 11 13 15 18 20 20 19 18 16 15 15 14 13 13 13 11 11 13 13 14 10 9 11 15 14 13 14 16 15 9 6 6 9 8 8 8 7 9 10 9 5 6 9 11 11 10 8 8 6 5 7 11 11 6 5 6 2 3 10 11 6 2 2 1 6 8 7 4 4 1 8 9 10 15 16 17 22 22 20 17 14
4 4 8 6 9 10 9 12 14 15 17 19 19 18 17 14 15 17 15 11 10 12 12 12 13 15 15 13 11 9 10 11 13 14 15 19 17 10 3 2 6 11 9 4 5 9 8 5 6 10 12 13 13 13 13 11 9 10 13 10 5 7 9 1 2 4 8 8 5 1 1 5 6 5 2 2 2 3 6 9 12 14 17 22 22 19 18 17
6 11 13 11 13 12 13 14 14 14 15 16 15 15 16 15 16 16 15 13 12 11 11 11 10 12 13 11 10 9 8 10 13 14 12 12 18 19 11 4 6 12 12 7 6 7 6 7 9 11 12 14 15 16 16 13 10 9 8 7 7 9 6 2 1 2 5 7 4 2 1 1 3 3 3 3 4 6 6 9 13 16 18 21 20 18 19 19
9 12 12 14 15 13 14 14 12 13 14 14 15 15 15 17 19 18 16 15 14 12 11 10 11 12 11 10 9 8 8 9 10 12 11 9 13 17 14 9 9 12 13 11 10 8 6 5 6 6 6 9 10 10 10 8 7 7 4 7 7 5 4 4 6 7 6 3 1 1 2 5 5 1 2 4 6 5 4 3 7 15 17 17 18 18 20 20
8 10 8 8 10 10 10 10 11 13 13 14 16 17 16 16 16 17 16 13 14 14 11 9 10 12 11 10 10 8 7 8 6 7 9 9 9 11 12 12 13 14 13 10 10 11 9 6 5 4 2 2 4 2 5 8 10 11 7 4 7 8 7 7 8 8 5 3 4 3 2 5 3 3 3 1 5 4 7 7 5 13 13 12 15 17 20 21
6 6 8 8 10 11 7 6 8 13 15 17 18 18 18 16 13 13 13 12 13 15 12 10 9 8 7 7 10 9 7 7 7 7 7 5 4 7 11 11 12 14 13 10 10 12 12 12 12 10 8 8 9 10 10 14 15 15 13 9 9 11 9 8 9 9 7 6 7 5 2 3 3 4 5 5 5 4 6 8 4 7 11 14 17 17 17 19
5 4 8 9 9 12 9 6 7 7 7 11 15 14 13 14 14 12 12 12 11 11 11 10 9 8 7 7 9 10 9 7 7 7 7 5 3 7 12 9 8 11 11 11 13 13 13 16 16 16 17 15 14 16 17 16 16 17 17 16 16 15 13 12 12 13 12 10 8 5 4 9 10 7 7 9 10 9 7 7 9 8 11 14 14 12 9 12
3 4 6 5 7 9 4 4 9 7 1 5 8 7 5 6 8 9 10 11 10 10 9 6 5 7 8 8 8 10 12 12 11 11 10 6 0 5 9 8 7 7 6 9 12 11 12 14 13 14 15 15 14 15 15 16 17 17 17 17 16 15 14 15 15 14 13 13 12 11 11 14 12 7 7 9 8 10 13 10 8 8 9 11 14 12 10 13
5 5 6 5 6 5 1 5 4 4 4 7 6 1 3 6 4 4 7 8 6 9 10 2 1 5 6 7 8 7 6 9 11 11 15 13 4 3 6 5 2 4 5 4 4 6 9 8 8 10 10 10 11 11 12 13 15 16 16 16 15 13 14 17 17 14 12 12 12 12 9 5 2 2 7 9 8 10 15 17 15 12 5 2 8 13 16 16
4 4 6 7 7 5 2 6 4 3 4 4 3 4 5 6 5 3 5 5 6 6 10 9 7 6 3 5 9 5 5 6 7 9 13 15 9 4 4 3 3 3 2 0 2 5 7 4 4 7 9 9 9 8 9 9 12 15 16 15 15 16 16 17 16 14 13 11 8 9 7 3 3 3 8 10 12 14 16 18 19 17 12 6 4 8 15 18
5 4 1 2 1 2 8 9 3 2 2 4 5 5 7 8 5 2 1 3 2 5 1 10 15 10 4 5 9 6 7 8 8 9 12 15 12 7 6 5 6 6 4 2 3 4 4 5 7 8 8 8 6 6 8 11 14 15 12 11 13 15 15 13 11 10 9 9 10 10 8 8 6 7 9 10 13 15 16 17 18 18 17 14 9 7 10 15
7 8 6 9 12 11 12 9 3 2 7 9 7 4 6 9 5 5 4 5 7 5 5 4 12 14 13 12 9 7 7 8 10 11 14 16 15 13 11 8 7 6 6 5 5 4 4 4 7 8 8 8 6 7 10 13 12 10 7 8 9 10 11 11 10 7 5 5 7 6 7 6 8 10 10 12 13 12 14 16 17 18 18 18 17 14 10 13
Wind_Direction
290 288 287 286 283 281 279 278 277 277 277 277 277 277 278 280 284 287 289 290 291 291 289 288 285 284 282 279 278 275 272 269 266 266 265 259 255 252 247 245 240 231 228 228 226 223 221 219 216 213 214 220 212 201 202 190 181 191 221 238 242 236 232 224 222 240 275 302 281 256 217 138 106 62 16 0 317 330 288 269 273 249 238 231 224 237 250 247
292 290 288 286 283 281 278 277 276 275 275 274 274 274 275 277 279 283 285 288 289 289 287 286 284 283 282 280 278 275 272 270 269 265 263 262 257 250 239 235 235 229 225 221 218 215 214 210 207 211 213 215 205 191 199 195 188 194 211 235 242 234 228 218 218 251 285 308 286 274 273 234 247 273 311 319 303 304 283 275 273 256 244 241 241 245 250 254
292 290 289 286 283 280 277 276 275 274 273 272 272 272 273 273 276 278 280 284 286 287 287 285 285 283 281 280 278 277 275 271 272 269 264 262 256 248 242 236 231 225 220 210 205 203 201 194 189 202 209 205 197 184 193 206 210 212 216 232 238 239 245 240 241 274 295 302 292 275 235 206 233 249 302 305 279 273 271 281 275 263 255 248 250 250 249 249
294 291 288 285 283 280 277 275 273 272 270 269 269 269 269 270 272 274 277 281 283 285 286 285 285 284 284 282 279 277 274 273 273 268 262 260 254 246 242 235 225 219 209 204 201 195 195 189 172 180 218 204 190 186 203 218 230 232 231 239 245 250 257 255 265 291 298 282 270 254 238 228 217 241 304 272 255 263 270 284 278 270 266 255 249 248 245 242
298 294 290 286 283 279 276 273 270 269 267 266 266 265 265 267 268 271 275 277 281 284 285 285 284 285 285 282 280 275 272 274 268 264 264 262 256 247 239 231 221 211 202 203 200 194 197 185 164 180 230 225 209 214 217 216 232 241 242 255 266 268 265 263 268 288 298 279 262 256 252 255 249 266 286 257 265 268 257 265 277 278 278 265 250 244 243 244
307 301 295 289 283 278 275 272 269 265 262 262 260 259 259 262 265 267 271 274 279 283 285 286 284 286 284 280 277 272 267 260 258 271 276 267 258 247 238 226 216 210 204 203 196 197 198 177 162 181 213 232 224 220 213 211 232 242 248 259 262 266 273 276 274 282 291 284 275 267 262 264 266 269 264 265 276 266 252 254 272 271 234 235 238 238 239 245
321 316 305 296 287 280 274 270 267 263 260 258 255 256 255 257 262 264 267 271 276 282 286 285 286 287 282 278 271 265 258 255 266 278 273 265 256 245 237 223 216 208 202 200 190 196 195 173 168 180 199 225 226 217 208 211 230 242 251 256 256 259 263 273 282 283 282 281 275 265 263 265 265 261 260 268 265 254 253 253 267 265 203 199 221 234 238 241
335 332 322 308 294 283 276 269 265 263 258 254 253 252 252 255 257 261 265 270 277 281 284 284 286 285 277 274 262 252 253 254 265 273 270 263 248 238 230 221 216 204 198 195 186 194 187 164 177 186 194 211 219 213 199 217 236 243 253 261 264 261 254 258 265 263 265 275 274 270 272 268 259 251 246 256 257 248 246 246 257 268 233 216 221 229 231 231
336 338 334 322 306 290 278 269 263 260 257 254 253 250 250 253 253 259 263 268 277 280 282 283 281 278 271 263 245 244 263 270 269 274 274 253 243 235 222 215 206 194 186 179 188 200 175 145 168 173 192 212 222 231 235 251 255 251 257 262 261 263 259 251 251 258 262 264 272 277 277 270 253 237 233 243 247 239 238 248 254 260 229 214 219 219 222 226
328 331 333 330 319 300 280 267 261 258 258 256 253 252 249 251 253 258 264 268 274 276 278 279 277 272 256 244 234 247 285 300 288 285 281 242 243 231 215 206 189 185 178 166 183 190 151 133 153 153 279 267 258 255 251 252 261 261 257 252 246 260 266 251 253 264 265 265 269 269 259 262 254 233 240 237 230 235 242 244 244 247 238 228 228 225 228 235
320 321 323 327 326 313 290 268 259 257 257 257 254 252 249 250 254 257 264 268 271 274 274 273 271 260 241 238 235 244 303 316 7 285 262 241 236 217 202 196 180 173 172 163 165 158 136 137 157 247 269 269 261 257 255 253 262 254 246 251 243 254 261 253 259 256 257 266 262 261 252 252 255 244 241 226 226 239 238 228 235 250 257 258 253 249 254 254
313 314 316 321 324 320 305 277 262 256 253 255 252 250 248 247 249 254 262 265 268 269 268 267 258 249 237 237 241 248 293 309 350 104 218 213 205 188 177 184 176 166 165 159 149 141 153 163 211 243 236 248 247 244 258 258 263 249 242 259 254 252 251 245 251 246 244 256 253 256 252 249 252 247 238 224 220 221 222 234 245 252 255 261 262 263 267 263
310 311 313 317 320 320 313 295 275 261 254 252 250 249 247 246 248 252 256 259 266 266 263 258 245 244 237 236 255 265 279 301 331 22 119 180 185 173 167 168 166 168 164 147 138 189 209 208 237 232 218 223 223 232 253 250 256 249 242 258 263 260 253 240 242 248 241 244 245 237 244 249 237 227 230 217 208 210 222 242 245 246 245 252 256 258 263 262
314 314 314 314 315 315 312 307 295 280 267 257 252 248 244 246 248 249 255 256 259 262 259 250 238 237 235 245 275 288 280 302 319 326 212 181 172 162 171 174 168 171 168 151 153 201 229 236 240 225 216 217 213 225 241 242 248 244 243 255 257 258 259 245 240 248 238 233 229 222 240 243 227 234 234 210 205 213 226 234 238 243 243 252 256 257 261 257
328 323 318 313 310 310 310 310 306 300 288 274 264 253 246 244 246 248 250 252 257 261 254 241 235 235 235 256 274 245 238 296 301 273 192 181 172 149 164 182 178 179 175 162 161 180 211 228 235 224 212 208 214 232 248 261 256 241 246 250 247 251 262 262 242 233 231 228 212 211 237 244 247 247 218 203 205 211 221 225 233 246 245 256 257 264 275 255
347 341 334 326 318 311 307 307 307 306 304 301 287 267 253 243 242 245 246 248 250 252 248 240 230 234 241 260 289 263 214 250 256 199 163 168 152 115 119 177 179 188 178 170 177 196 210 227 234 218 202 199 219 244 264 268 259 243 241 251 254 249 257 270 249 219 217 226 206 200 226 257 269 223 187 185 189 203 230 228 237 252 240 250 266 285 288 244
347 345 344 338 333 326 316 308 301 304 314 319 314 298 272 250 245 243 244 242 242 250 247 237 224 232 260 317 323 299 243 241 220 174 168 175 136 95 32 154 138 148 163 167 186 203 203 221 222 202 194 210 222 236 256 256 257 251 240 249 258 257 260 259 226 201 199 196 191 196 232 282 280 190 171 171 179 212 238 234 244 247 215 230 253 278 294 239
330 332 334 335 338 338 336 326 305 302 317 331 6 66 68 48 280 255 250 241 236 243 237 225 211 212 298 359 327 295 247 234 201 165 168 174 148 140 292 302 112 121 167 166 130 150 205 202 195 201 217 249 232 227 245 251 255 267 263 257 267 280 268 234 192 188 190 189 188 199 237 277 202 167 169 183 198 216 232 242 251 233 204 205 202 217 286 262
318 318 320 325 330 336 347 353 339 316 307 304 123 102 87 71 27 321 261 243 238 233 227 220 192 177 78 30 354 39 128 209 198 168 156 149 152 164 222 251 181 184 227 245 94 138 204 203 206 221 224 229 223 222 240 255 257 276 304 283 296 306 283 241 207 188 183 195 193 200 235 258 209 189 217 250 206 198 218 248 248 225 209 196 185 218 254 267
312 309 312 316 319 329 343 359 5 6 0 163 142 116 99 84 34 334 276 240 238 223 213 214 190 172 101 45 347 80 146 240 241 205 166 160 168 173 197 204 186 218 232 240 241 211 228 230 234 237 229 222 230 235 238 251 255 262 282 289 311 325 320 276 195 175 175 193 189 197 234 252 235 223 245 238 189 195 238 246 232 232 223 214 207 232 254 228
310 307 305 306 313 321 332 354 13 27 77 167 166 151 161 98 39 316 284 243 225 212 206 213 203 196 145 123 245 231 228 261 239 221 201 186 185 183 194 187 187 219 232 234 234 238 239 245 254 246 249 254 245 239 239 253 259 262 279 291 306 329 348 21 157 163 169 181 184 201 229 241 236 236 247 222 197 216 254 232 218 235 234 243 248 253 261 209
310 307 301 300 305 312 324 341 0 20 52 172 196 207 267 295 290 283 282 271 234 213 207 206 192 185 149 133 192 233 249 258 225 214 208 198 192 188 199 202 198 210 220 224 228 236 232 243 262 243 245 260 252 251 258 266 266 266 280 287 288 312 348 16 157 167 165 176 198 219 238 239 235 242 243 219 204 210 234 219 216 235 237 258 258 255 246 205
308 306 302 299 297 301 314 322 341 3 350 258 246 254 285 297 284 280 287 285 266 221 214 212 196 183 157 144 211 233 240 247 233 217 205 201 193 185 198 215 212 199 207 219 223 227 228 245 270 241 233 245 247 256 262 272 273 271 279 282 275 276 320 343 208 156 132 172 214 230 251 241 238 247 239 248 218 192 201 210 210 249 271 279 263 247 233 213
303 303 302 299 294 296 298 307 327 332 342 358 279 282 296 294 292 306 298 290 280 235 223 222 215 209 190 180 217 230 230 240 235 225 220 209 185 183 194 208 225 226 228 230 223 222 229 255 274 232 215 220 224 241 261 282 281 269 270 281 271 253 282 321 313 149 115 162 203 216 250 242 234 240 240 265 251 209 215 215 218 258 273 277 260 237 239 234
301 299 297 297 295 292 290 301 314 320 41 28 311 314 311 300 311 320 313 305 295 260 232 230 225 224 209 197 215 231 243 247 230 225 238 228 196 199 198 202 226 235 237 239 236 235 236 249 261 229 208 220 236 252 277 299 291 270 244 269 279 258 277 300 286 282 248 241 258 228 245 248 235 239 248 264 267 255 252 235 240 250 237 246 260 257 256 245
299 298 297 296 290 292 289 285 289 255 213 219 43 348 307 299 321 321 315 307 298 277 230 230 225 221 216 205 206 217 241 249 224 210 235 238 224 220 213 210 229 238 236 243 253 247 236 234 237 229 226 233 244 252 271 285 283 284 259 260 284 272 282 285 276 281 235 258 296 222 219 255 248 248 247 261 267 260 261 247 241 227 201 212 259 267 254 238
295 297 296 294 288 288 281 264 251 235 239 229 131 315 281 288 317 317 318 300 295 276 211 216 216 217 222 212 201 204 219 238 227 208 227 237 230 225 227 223 230 242 236 251 269 249 220 218 213 217 247 254 255 257 257 261 263 268 265 265 275 276 285 283 278 280 270 288 291 204 219 251 258 257 252 268 266 253 259 246 220 203 198 214 255 261 247 234
289 291 293 293 287 281 273 264 247 236 243 240 240 261 269 297 301 305 328 294 292 206 206 212 209 210 220 212 207 211 207 190 219 213 219 232 227 226 233 223 224 239 238 261 279 254 234 266 244 243 265 264 263 262 254 256 254 251 251 257 269 270 268 281 290 285 276 268 241 218 223 228 250 263 269 279 274 268 262 235 208 205 212 236 248 242 240 243
282 283 286 288 285 279 269 261 248 237 243 246 253 269 284 291 278 277 0 304 243 223 224 218 212 207 203 201 209 218 216 209 225 208 203 221 219 216 227 223 227 246 247 258 277 258 245 273 276 258 255 258 271 261 232 232 245 252 247 242 254 254 254 278 302 297 281 255 229 220 222 225 253 260 266 277 283 275 227 202 201 203 208 225 221 217 229 239
277 276 277 280 281 278 266 259 252 240 244 253 260 267 262 255 257 256 217 229 270 276 246 222 219 215 197 193 211 225 220 220 227 197 192 210 224 225 230 228 235 253 254 255 271 261 244 251 266 246 233 266 286 262 231 229 249 262 248 240 253 255 252 265 277 285 288 263 251 246 244 265 282 257 260 266 288 281 211 194 201 192 194 200 183 162 161 181
275 272 271 272 273 272 265 262 262 251 248 257 259 251 245 241 242 234 187 246 292 284 233 227 224 216 205 199 212 230 225 223 224 196 190 208 228 235 241 239 242 256 263 265 278 264 240 246 254 239 244 274 277 259 252 253 255 254 243 246 263 271 251 248 256 270 275 268 314 300 268 267 254 245 260 258 278 273 220 198 192 187 190 189 174 156 151 164
277 272 268 266 266 267 264 262 263 258 251 247 240 236 235 235 232 225 224 267 309 207 198 234 230 208 210 208 214 227 230 230 229 215 215 228 229 233 246 245 239 246 259 266 271 265 248 253 255 249 266 273 258 256 263 265 246 228 255 274 282 332 296 252 260 278 256 267 282 284 281 279 259 251 256 249 257 254 212 203 199 195 198 201 200 202 203 200
278 273 268 263 261 261 258 260 261 253 244 238 234 227 217 219 235 233 239 255 276 275 249 259 248 217 213 212 220 230 230 229 230 225 225 228 227 234 244 243 232 234 246 254 264 278 272 261 253 255 269 253 226 246 248 239 241 223 236 253 239 228 58 256 270 222 262 275 279 282 279 280 275 261 248 238 248 267 235 218 210 204 206 210 213 220 227 228
277 273 268 264 261 258 253 252 251 246 238 233 229 217 207 221 239 237 240 241 245 276 290 275 272 256 223 215 221 225 223 222 219 219 222 221 226 231 230 230 234 239 242 242 258 275 275 269 257 252 261 243 226 249 237 237 267 257 241 237 229 212 173 196 255 157 225 310 304 296 264 233 277 269 239 228 223 228 214 197 194 197 204 209 211 220 227 230
274 270 267 266 261 253 247 241 239 236 233 229 225 216 214 227 238 244 249 247 245 265 275 264 267 272 246 226 225 224 224 221 211 218 228 223 225 231 223 219 234 240 232 225 235 244 243 253 260 256 254 230 221 233 234 250 272 279 259 229 223 220 191 212 240 241 269 333 309 282 262 264 279 241 196 198 196 198 197 197 201 197 197 201 206 216 222 226
272 270 265 263 259 249 241 235 230 228 228 228 224 220 222 229 236 244 259 269 274 291 299 279 250 259 267 247 234 238 236 226 216 228 239 231 227 231 225 222 231 228 218 217 225 236 242 240 247 260 221 195 204 218 217 243 276 291 265 228 220 235 230 230 240 252 279 320 273 259 263 265 254 234 225 204 193 199 202 205 205 198 195 194 197 208 214 217
271 269 264 260 256 246 235 227 222 222 223 225 226 227 230 235 240 247 261 274 283 301 310 296 262 253 266 264 252 254 241 221 215 221 234 239 232 232 235 235 230 216 216 234 248 284 279 254 257 288 248 204 226 249 240 258 302 337 256 287 292 229 218 218 216 225 270 265 240 237 253 258 245 231 222 204 194 202 213 219 218 211 214 219 218 219 220 225
272 266 265 260 248 240 230 217 215 218 219 223 229 234 235 235 238 245 254 265 283 300 293 279 273 260 258 263 264 263 240 213 215 221 233 241 235 235 242 228 205 193 202 228 233 298 313 275 267 289 317 251 233 255 253 259 289 280 256 299 314 247 216 211 204 201 188 214 255 242 246 265 261 211 199 205 209 213 216 217 218 220 224 230 229 226 230 237
281 268 265 258 243 241 230 213 210 215 217 224 230 234 239 240 240 242 247 255 273 289 281 265 274 281 260 248 256 265 263 225 214 220 236 239 231 233 234 158 170 186 200 217 228 269 291 286 281 266 273 276 264 264 239 226 263 276 254 271 278 262 277 258 214 213 204 199 253 272 259 330 11 8 283 250 230 219 216 213 216 217 214 217 222 225 234 242
288 276 264 243 230 236 226 209 213 219 220 227 232 234 240 248 249 253 263 268 270 273 265 250 262 293 291 258 252 260 262 254 238 236 246 253 258 248 235 203 173 192 207 219 231 251 255 273 287 268 258 258 259 279 252 214 269 288 267 264 260 254 271 280 264 288 323 170 170 46 309 330 9 15 346 295 229 212 218 210 201 204 209 217 224 230 236 237
294 295 232 190 214 218 202 203 221 230 232 236 240 242 244 251 256 258 262 271 275 273 270 255 250 276 300 295 280 260 244 244 247 245 250 258 289 320 245 230 232 220 220 227 229 238 240 253 275 266 263 258 251 276 309 307 293 299 293 278 270 308 308 295 314 321 329 319 237 116 239 278 316 339 357 26 124 214 227 212 193 201 226 238 237 235 234 232
270 133 123 160 218 219 208 218 233 242 244 244 245 248 253 259 261 260 261 269 277 273 279 278 259 267 286 288 292 281 243 241 245 234 238 250 263 294 324 234 225 208 192 178 206 221 222 231 260 259 259 262 259 263 271 273 274 286 291 282 271 310 315 289 178 290 293 280 266 192 243 278 287 280 249 86 37 279 262 247 221 213 229 238 233 226 225 229
204 159 148 176 212 228 234 237 242 244 249 254 256 254 255 258 257 258 261 265 271 272 275 284 273 267 272 267 276 283 259 255 252 236 232 236 245 257 264 264 226 198 185 186 212 224 225 238 263 266 264 267 264 255 250 258 287 300 311 330 304 279 286 297 262 298 268 253 236 191 205 177 171 199 213 199 254 283 280 267 252 234 229 228 222 221 231 239
206 182 169 186 203 221 237 241 243 245 248 256 263 260 258 258 256 258 261 258 262 267 269 275 268 258 257 251 262 284 275 264 255 248 250 230 230 249 254 250 240 217 210 221 236 248 246 240 259 271 283 286 275 263 258 271 322 344 9 22 353 305 283 294 313 343 339 313 307 257 146 124 136 177 277 230 240 279 356 11 240 223 217 216 215 223 236 241
199 192 184 202 216 223 237 251 254 253 249 252 262 263 261 259 255 256 260 256 255 257 266 287 271 253 257 261 266 282 281 267 259 262 262 239 227 245 246 240 238 230 227 233 246 258 252 225 218 216 195 267 265 290 331 322 323 325 325 356 2 350 339 318 315 328 339 356 337 317 112 106 89 60 40 287 248 291 20 37 200 203 210 233 244 247 247 245
174 179 182 194 214 222 244 280 265 255 253 258 268 269 265 263 256 249 251 254 253 248 259 292 284 260 270 273 268 274 265 250 252 263 271 265 231 214 216 222 228 231 238 243 246 255 253 237 229 224 220 236 254 267 296 313 314 316 317 312 316 324 327 332 327 314 309 314 309 309 84 75 27 48 34 357 325 318 3 8 316 243 248 257 248 240 243 247
151 178 191 182 188 204 225 248 234 235 254 267 272 271 271 271 263 255 252 255 257 248 255 274 259 249 285 288 270 273 267 245 247 257 256 274 284 195 193 202 219 227 241 256 260 261 259 252 245 238 238 244 258 270 282 296 301 302 302 297 298 302 303 311 313 302 297 295 285 279 284 298 307 310 302 307 313 302 296 336 343 305 281 270 243 220 227 253
182 214 213 197 188 189 204 261 232 219 273 334 298 263 267 281 260 252 252 251 255 250 252 269 237 232 273 284 269 273 268 254 256 259 246 245 0 147 175 204 243 251 255 269 277 270 252 250 247 244 251 258 265 274 280 284 287 289 289 286 289 294 296 302 308 308 304 291 284 293 294 292 298 297 279 280 290 281 267 274 299 287 281 285 272 266 276 269
267 250 230 250 243 208 27 341 276 254 304 344 352 324 325 327 297 266 263 263 270 247 235 266 0 238 261 274 268 271 259 238 237 241 241 244 244 153 160 172 228 295 314 310 295 262 247 253 251 242 253 264 267 271 272 277 285 284 280 280 284 287 288 290 295 305 308 297 297 304 301 303 338 293 274 266 253 253 254 255 263 264 251 261 277 279 279 271
309 258 240 274 271 240 355 3 358 346 318 320 12 67 44 2 336 309 280 290 327 290 254 259 255 231 248 275 260 240 127 148 194 212 230 240 244 229 200 189 197 230 301 0 183 210 221 226 226 234 250 262 270 272 272 288 298 287 281 287 287 281 279 283 290 300 304 305 310 299 290 339 32 279 264 257 251 257 259 253 253 252 239 213 222 256 261 264
23 33 19 13 57 82 37 26 353 282 2 29 28 52 50 26 354 318 174 171 96 65 347 261 248 235 229 250 249 221 140 149 193 211 226 236 237 231 225 235 241 232 219 220 237 232 221 224 239 253 269 279 280 280 290 301 293 281 290 309 300 287 284 287 296 308 314 313 306 306 326 354 333 280 262 255 255 259 257 250 246 247 245 236 221 216 229 239
49 54 61 70 69 58 42 41 49 28 38 46 52 67 40 12 323 237 181 172 185 137 75 283 250 240 237 239 251 247 204 193 210 216 224 234 235 232 228 225 228 231 231 237 252 257 242 246 263 267 272 280 273 273 297 307 295 291 323 335 313 297 285 282 290 304 324 323 308 328 17 1 298 281 269 257 253 256 254 251 251 254 257 253 244 238 232 228